Regional Weather Roundup
Issued by NWS Cleveland, OH

Home | Current Version | Previous Version | Graphics & Text | Print | Product List | Glossary On
Versions: 1 2 3 4 5 6 7 8 9 10 11 12 13 14 15 16 17 18 19 20 21 22 23 24 25 26 27 28 29 30 31 32 33 34 35 36 37 38 39 40 41 42 43 44 45 46 47 48 49 50
000
ASUS41 KCLE 192210
RWRCLE
OHIO REGIONAL WEATHER ROUNDUP
NATIONAL WEATHER SERVICE CLEVELAND, OH
500 PM EST FRI DEC 19 2014

NOTE: "FAIR" INDICATES FEW OR NO CLOUDS BELOW 12,000 FEET WITH NO
SIGNIFICANT WEATHER AND/OR OBSTRUCTIONS TO VISIBILITY.

OHZ001>008-015>018-024>027-034-035-043-044-192300-
   NORTHWEST OHIO

CITY           SKY/WX    TMP DP  RH WIND       PRES   REMARKS
DEFIANCE       CLOUDY    31  21  66 CALM      30.28R
FINDLAY        CLOUDY    31  22  69 CALM      30.26R
TOLEDO EXPRESS CLOUDY    30  25  81 CALM      30.27R
TOLEDO EXEC    CLOUDY    30  24  78 SE3       30.28S
LIMA           CLOUDY    32  23  69 CALM      30.25S
$$

OHZ009>014-019>023-028>033-038-089-192300-
   NORTHEAST OHIO

CITY           SKY/WX    TMP DP  RH WIND       PRES   REMARKS
CLE-HOPKINS    CLOUDY    30  21  69 N6        30.29R WCI  24
CLE-LAKEFRONT  CLOUDY    32  20  61 NW8       30.26S WCI  25
CUY CO. ARPT   CLOUDY    32  23  69 NW12      30.26R WCI  23
LORAIN-ELYRIA  CLOUDY    29  21  72 NW3       30.27R
ASHTABULA      CLOUDY    30  20  66 W8        30.25R WCI  22
AKRON-CANTON   CLOUDY    30  23  75 NW3       30.23S
WOOSTER        CLOUDY    29  23  78 N5        30.24F WCI  24
MANSFIELD      CLOUDY    28  23  81 W3        30.24R
YOUNGSTOWN     CLOUDY    30  21  69 NW6       30.22R WCI  24
$$

OHZ042-051>053-060>062-070>072-077>081-192300-
  SOUTHWEST OHIO

CITY           SKY/WX    TMP DP  RH WIND       PRES   REMARKS
CINC-COVINGTON CLOUDY    30  18  60 CALM      30.29R
CINC-LUNKEN    CLOUDY    30  22  72 SW3       30.33R
HAMILTON       CLOUDY    32  23  69 CALM      30.31R
DAYTON         CLOUDY    30  24  78 NW3       30.27R
WRIGHT-PAT AFB CLOUDY    30  23  74 NW1       30.28R
DAYTON GENERAL CLOUDY    31  22  69 NE3       30.26R
WILMINGTON     CLOUDY    30  21  69 CALM      30.26R
$$

OHZ036-037-039>041-045>050-054>059-063>069-073>076-082>088-192300-
  CENTRAL AND SOUTHEAST OHIO

CITY           SKY/WX    TMP DP  RH WIND       PRES   REMARKS
COLUMBUS       CLOUDY    30  22  72 CALM      30.26S
OSU AIRPORT    CLOUDY    30  23  75 CALM      30.25S
BOLTON FIELD   CLOUDY    30  25  80 CALM      30.26S
RICKENBACK AFB CLOUDY    30  23  75 CALM      30.26R
NEWARK         CLOUDY    31  23  72 CALM      30.25S
MARION         CLOUDY    30  22  72 N5        30.25S WCI  25
LANCASTER      CLOUDY    33  23  66 N3        30.26S
ZANESVILLE     CLOUDY    30  23  75 CALM      30.25S
NEW PHILLY     CLOUDY    32  24  72 CALM      30.26S
$$



USA.gov is the U.S. government's official web portal to all federal, state and local government web resources and services.